TimeEDT,TemperatureF,Dew PointF,Humidity,Sea Level PressureIn,VisibilityMPH,Wind Direction,Wind SpeedMPH,Gust SpeedMPH,PrecipitationIn,Events,Conditions,WindDirDegrees,DateUTC
12:47 AM,69.8,64.4,83,29.76,10.0,Calm,Calm,-,N/A,,Mostly Cloudy,0,2013-06-28 04:47:00
12:51 AM,68.0,64.9,90,29.73,10.0,Variable,3.5,-,N/A,,Mostly Cloudy,0,2013-06-28 04:51:00
1:51 AM,68.0,64.0,87,29.71,10.0,Calm,Calm,-,N/A,,Mostly Cloudy,0,2013-06-28 05:51:00
2:51 AM,66.9,63.0,87,29.71,10.0,SSE,4.6,-,N/A,,Mostly Cloudy,150,2013-06-28 06:51:00
3:47 AM,66.2,62.6,88,29.72,10.0,Calm,Calm,-,0.00,Rain,Light Rain,0,2013-06-28 07:47:00
3:51 AM,66.0,63.0,90,29.70,10.0,Calm,Calm,-,0.00,,Overcast,0,2013-06-28 07:51:00
4:44 AM,66.2,64.4,94,29.72,10.0,Calm,Calm,-,0.12,,Overcast,0,2013-06-28 08:44:00
4:51 AM,69.1,64.9,87,29.70,10.0,Variable,4.6,-,0.12,,Overcast,0,2013-06-28 08:51:00
5:49 AM,69.8,66.2,88,29.73,10.0,West,5.8,-,0.00,,Overcast,260,2013-06-28 09:49:00
5:51 AM,70.0,66.0,87,29.70,10.0,West,6.9,-,0.00,,Overcast,260,2013-06-28 09:51:00
6:51 AM,70.0,64.9,84,29.69,10.0,West,5.8,-,0.00,,Mostly Cloudy,260,2013-06-28 10:51:00
7:14 AM,71.6,64.4,78,29.73,10.0,West,8.1,-,N/A,,Mostly Cloudy,260,2013-06-28 11:14:00
7:22 AM,71.6,64.4,78,29.72,10.0,WSW,5.8,-,N/A,,Mostly Cloudy,240,2013-06-28 11:22:00
7:29 AM,71.6,64.4,78,29.72,10.0,WSW,8.1,-,N/A,,Mostly Cloudy,240,2013-06-28 11:29:00
7:51 AM,71.1,63.0,75,29.69,10.0,SSW,4.6,-,N/A,,Mostly Cloudy,210,2013-06-28 11:51:00
8:51 AM,70.0,64.9,84,29.68,10.0,SSE,3.5,-,0.03,,Scattered Clouds,160,2013-06-28 12:51:00
9:51 AM,73.9,64.9,73,29.66,10.0,Variable,5.8,-,0.00,,Scattered Clouds,0,2013-06-28 13:51:00
10:51 AM,78.1,66.0,66,29.65,10.0,West,10.4,-,N/A,,Scattered Clouds,260,2013-06-28 14:51:00
11:51 AM,79.0,64.9,62,29.64,10.0,WSW,11.5,20.7,0.00,,Partly Cloudy,250,2013-06-28 15:51:00
12:51 PM,78.1,63.0,60,29.62,10.0,West,6.9,19.6,N/A,,Mostly Cloudy,270,2013-06-28 16:51:00
1:51 PM,72.0,64.9,78,29.62,10.0,West,3.5,-,0.05,,Mostly Cloudy,280,2013-06-28 17:51:00
2:51 PM,78.1,63.0,60,29.60,10.0,West,15.0,21.9,0.06,,Partly Cloudy,260,2013-06-28 18:51:00
3:51 PM,77.0,62.1,60,29.61,10.0,West,12.7,20.7,0.01,,Partly Cloudy,260,2013-06-28 19:51:00
4:51 PM,66.9,62.1,84,29.62,10.0,North,11.5,19.6,0.03,Rain,Light Rain,360,2013-06-28 20:51:00
5:51 PM,64.0,60.1,87,29.65,2.5,NNW,9.2,35.7,0.10,Rain,Light Rain,330,2013-06-28 21:51:00
5:59 PM,64.4,60.8,88,29.67,10.0,NW,9.2,-,0.00,Rain,Light Rain,310,2013-06-28 21:59:00
6:51 PM,64.9,61.0,87,29.64,10.0,Calm,Calm,-,0.00,,Overcast,0,2013-06-28 22:51:00
7:51 PM,64.0,61.0,90,29.65,10.0,South,6.9,-,0.02,,Overcast,170,2013-06-28 23:51:00
8:51 PM,63.0,60.1,90,29.66,10.0,Calm,Calm,-,N/A,,Overcast,0,2013-06-29 00:51:00
9:51 PM,63.0,60.1,90,29.66,10.0,Variable,3.5,-,N/A,,Overcast,0,2013-06-29 01:51:00
10:51 PM,64.0,60.1,87,29.65,10.0,SSE,3.5,-,N/A,,Overcast,160,2013-06-29 02:51:00
11:51 PM,63.0,60.1,90,29.65,10.0,SSW,4.6,-,0.04,,Mostly Cloudy,200,2013-06-29 03:51:00